Lewistown, MT

2:10 AM MDT on May 23, 2017 (GMT -0600)
Lewistown Municipal

Weather History for KLWT - February, 2011

Change the Weather History Date:

Friday, February 4, 2011

  Actual Average Record
Temperature  
Mean Temperature 39 °F 24 °F  
Max Temperature 42 °F 35 °F 62 °F (1941)
Min Temperature 35 °F 14 °F -37 °F (1989)
Degree Days  
Heating Degree Days 26 40  
Month to date heating degree days 187 163  
Since 1 July heating degree days 5075 4868  
Cooling Degree Days 0 0  
Month to date cooling degree days 0 0  
Year to date cooling degree days 0 0  
Moisture  
Dew Point 30 °F    
Average Humidity 70    
Maximum Humidity 76    
Minimum Humidity 64    
Precipitation  
Precipitation T in 0.02 in 0.20 in (1900)
Month to date precipitation T 0.07  
Year to date precipitation 0.66 0.64  
Snow  
Snow 0.00 in - - ()
Snow Depth 1.00 in    
Sea Level Pressure  
Sea Level Pressure 29.93 in    
Wind  
Wind Speed 16 mph (WNW)    
Max Wind Speed 32 mph    
Max Gust Speed 45 mph    
Visibility 10 miles    
Events Rain    
T = Trace of Precipitation, MM = Missing Value Source: NWS Daily Summary

Daily Weather History Graph

Daily Weather History Graph

Search for Another Location

Airport or City:

Trip Planner

Search our weather history database for the weather conditions in past years. The results will help you decide how hot, cold, wet, or windy it might be!

Date:

Astronomy

Feb. 04, 2011 Rise Set
Actual Time 7:39 AM MST 5:24 PM MST
Civil Twilight 7:06 AM MST 5:57 PM MST
Nautical Twilight 6:30 AM MST 6:33 PM MST
Astronomical Twilight 5:55 AM MST 7:09 PM MST
Moon 7:58 AM MST (2/4) 7:31 PM MST (2/4)
Length of Visible Light 10h 50m
Length of Day
9h 45m
Waxing Crescent, 3% of the Moon is Illuminated
Feb 4
Waxing Crescent
Feb 11
First Quarter
Feb 18
Full
Feb 24
Last Quarter
Mar 4
New

Hourly Weather History & Observations

Time (MST) Temp. Windchill Dew Point Humidity Pressure Visibility Wind Dir Wind Speed Gust Speed Precip Events Conditions
12:54 AM 39.9 °F 32.1 °F 28.9 °F 65% 30.08 in 10.0 mi North 13.8 mph 21.9 mph N/A   Clear
1:54 AM 37.0 °F 31.6 °F 28.9 °F 73% 30.09 in 10.0 mi NW 6.9 mph - N/A   Clear
2:54 AM 37.9 °F 31.5 °F 28.9 °F 70% 30.08 in 10.0 mi NNW 9.2 mph 19.6 mph N/A   Clear
3:54 AM 41.0 °F 32.2 °F 30.0 °F 65% 30.07 in 10.0 mi WNW 18.4 mph 33.4 mph N/A   Mostly Cloudy
4:54 AM 39.0 °F 34.0 °F 30.0 °F 70% 30.08 in 10.0 mi NW 6.9 mph - N/A   Overcast
5:54 AM 39.9 °F 32.1 °F 30.0 °F 68% 30.07 in 10.0 mi NNW 13.8 mph 20.7 mph N/A   Overcast
6:54 AM 39.0 °F 31.8 °F 30.0 °F 70% 30.09 in 10.0 mi WNW 11.5 mph - N/A   Overcast
7:54 AM 37.9 °F 28.9 °F 30.0 °F 73% 30.08 in 10.0 mi West 16.1 mph - N/A   Overcast
8:54 AM 39.9 °F 33.4 °F 30.0 °F 68% 30.05 in 10.0 mi North 10.4 mph - N/A   Scattered Clouds
9:54 AM 39.9 °F 37.8 °F 30.0 °F 68% 30.04 in 10.0 mi NW 3.5 mph - N/A   Scattered Clouds
10:54 AM 37.9 °F 31.5 °F 30.9 °F 76% 30.04 in 10.0 mi WSW 9.2 mph - N/A   Partly Cloudy
11:54 AM 37.9 °F 28.9 °F 30.9 °F 76% 30.00 in 10.0 mi WSW 16.1 mph - N/A   Partly Cloudy
12:54 PM 39.9 °F 29.7 °F 32.0 °F 73% 29.91 in 10.0 mi West 23.0 mph 27.6 mph N/A   Clear
1:54 PM 39.9 °F 30.0 °F 30.9 °F 70% 29.87 in 10.0 mi WSW 21.9 mph - N/A   Clear
2:54 PM 39.9 °F 30.5 °F 32.0 °F 73% 29.86 in 10.0 mi WSW 19.6 mph - N/A   Mostly Cloudy
3:54 PM 39.9 °F 29.2 °F 32.0 °F 73% 29.80 in 10.0 mi WSW 25.3 mph - N/A   Mostly Cloudy
4:54 PM 39.9 °F 30.0 °F 32.0 °F 73% 29.79 in 10.0 mi WSW 21.9 mph 31.1 mph N/A   Overcast
5:54 PM 37.9 °F 27.1 °F 30.9 °F 76% 29.77 in 10.0 mi WSW 23.0 mph - N/A   Overcast
6:54 PM 37.0 °F 28.9 °F 30.9 °F 79% 29.78 in 10.0 mi West 12.7 mph - N/A   Mostly Cloudy
7:54 PM 39.9 °F 30.0 °F 30.0 °F 68% 29.77 in 10.0 mi West 21.9 mph - N/A   Overcast
8:54 PM 39.0 °F 29.6 °F 30.0 °F 70% 29.78 in 10.0 mi WNW 18.4 mph 28.8 mph N/A   Overcast
9:54 PM 37.9 °F 27.9 °F 30.0 °F 73% 29.79 in 10.0 mi West 19.6 mph 26.5 mph N/A   Overcast
10:54 PM 37.9 °F 25.9 °F 28.9 °F 70% 29.82 in 10.0 mi NW 28.8 mph 42.6 mph 0.00 in   Overcast
11:19 PM 37.4 °F 25.6 °F 28.4 °F 70% 29.78 in 10.0 mi WNW 26.5 mph 42.6 mph 0.00 in Rain Light Rain
11:54 PM 36.0 °F 25.3 °F 30.0 °F 79% 29.85 in 10.0 mi NW 19.6 mph 32.2 mph 0.00 in   Overcast